Hourly Data Report for January 02, 2021

TORONTO CITY
ONTARIO
Current Station Operator: ECCC - MSC

43°40'00.000" N
79°24'00.000" W
112.50 m
6158355
71508
XTO

Download Data

Hourly Data (January 2021)
Hourly Data Report for January 2, 2021
TIME
LST
Temp Definition
°C
Dew Point Definition
°C
Rel Hum Definition
%
Precip. Amount Definition
mm

Wind Dir Definition
10's deg

Wind Spd Definition
km/h
Visibility Definition
km
Stn Press Definition
kPa
Hmdx Definition


Wind Chill Definition


Weather Definition


00:00 2.0 1.0 93 0.2       99.39     LegendNANA
01:00 2.1 1.1 93 1.8       99.27     LegendNANA
02:00 2.0 1.0 93 3.1       99.22     LegendNANA
03:00 1.5 0.4 92 3.4       99.16     LegendNANA
04:00 0.7 -0.2 94 2.0       99.26     LegendNANA
05:00 0.0 -1.3 91 1.9       99.36     LegendNANA
06:00 -0.4 -2.2 88 0.1       99.52     LegendNANA
07:00 -0.6 -2.4 87 0.0       99.74     LegendNANA
08:00 -0.6 -2.9 84 0.0       99.94     LegendNANA
09:00 -0.6 -3.2 83 0.0       100.09     LegendNANA
10:00 0.1 -2.4 83 0.0       100.25     LegendNANA
11:00 0.8 -2.1 81 0.2       100.29     LegendNANA
12:00 0.8 -2.3 80 0.0       100.31     LegendNANA
13:00 1.6 -1.3 81 0.0       100.34     LegendNANA
14:00 1.7 -1.3 81 0.0       100.36     LegendNANA
15:00 1.6 -1.5 80 0.0       100.47     LegendNANA
16:00 1.8 -2.4 73 0.0       100.55     LegendNANA
17:00 1.7 -2.7 72 0.0       100.56     LegendNANA
18:00 1.4 -3.6 69 0.0       100.63     LegendNANA
19:00 1.6 -3.1 71 0.0       100.65     LegendNANA
20:00 1.5 -3.3 71 0.0       100.66     LegendNANA
21:00 1.4 -2.9 73 0.0       100.62     LegendNANA
22:00 1.4 -3.0 72 0.0       100.59     LegendNANA
23:00 1.5 -2.7 74 0.0       100.53     LegendNANA

Notes on Data Quality.

Legend

  • E = Estimated
  • M = Missing
  • NA = Not Available*
  • [empty] = Indicates an unobserved value
Date modified: